Regional Weather Roundup
Issued by NWS Sterling, VA

Home | Current Version | Previous Version | Graphics & Text | Print | Product List | Glossary On
Versions: 1 2 3 4 5 6 7 8 9 10 11 12 13 14 15 16 17 18 19 20 21 22 23 24 25 26 27 28 29 30 31 32 33 34 35 36 37 38 39 40 41 42 43 44 45 46 47 48 49 50
000
ASUS41 KLWX 201010
RWRLWX

REGIONAL WEATHER ROUNDUP
NATIONAL WEATHER SERVICE BALTIMORE MD/WASHINGTON DC
600 AM EDT MON OCT 20 2014

Note: "FAIR" indicates few or no clouds below 12,000 feet
with no significant weather and/or obstructions to visibility.
 TC=TEMPERATURE CELSIUS

 * =Non NWS site. Station does not report precipitation (e.g. rain,
    snow, etc.), thunder, or fog.

DCZ001-MDZ009-015-VAZ040>042-051-053>054-201100-
WASHINGTON METRO

CITY           SKY/WX    TMP DP  RH WIND       PRES   REMARKS
WASHINGTON NAT MOCLDY    47  39  74 CALM      30.12S
DULLES         MOCLDY    36  35  96 CALM      30.11S
ANDREWS AFB    PTCLDY    38  36  94 CALM      30.11S
FT BELVOIR     PTCLDY    37  36  95 CALM      30.12S
QUANTICO       PTCLDY    41  38  89 NW8       30.13S
LEESBURG*      PTCLDY    37  37 100 CALM      30.11S
MANASSAS*      PTCLDY    36  36 100 CALM      30.12S
GAITHERSBURG*  CLEAR     36  34  93 CALM      30.14R

$$

MDZ006>007-011-014-201100-
BALTIMORE METRO

CITY           SKY/WX    TMP DP  RH WIND       PRES   REMARKS
BWI AIRPORT    PTCLDY    36  34  92 CALM      30.10S
MD SCIENCE CTR   N/A     44  35  70 MISG      30.11S
MARTIN STATE   CLEAR     39  39 100 CALM      30.12S
ANNAPOLIS      PTCLDY    42  37  82 CALM      30.12R
FORT MEADE*    PTCLDY    32  32 100 CALM      30.14R

$$

MDZ012-015-019>023-201100-
MARYLAND EASTERN SHORE

CITY           SKY/WX    TMP DP  RH WIND       PRES   REMARKS
OCEAN CITY     CLEAR     34  32  92 CALM      30.13R
SALISBURY      CLEAR     37  33  85 CALM      30.13R
BAY BRIDGE AP*   N/A     43  41  93 CALM      30.12R
EASTON*        CLEAR     39  39 100 CALM      30.16S

$$

MDZ017>025-201100-
SOUTHERN MARYLAND

CITY           SKY/WX    TMP DP  RH WIND       PRES   REMARKS
PATUXENT RIVER PTCLDY    38  36  92 CALM      30.12R
ST INIGOES     CLEAR     39  35  86 NE3       30.12R
LEONARDTOWN*   NOT AVBL

$$

MDZ003>005-201100-
NORTH CENTRAL MARYLAND

CITY           SKY/WX    TMP DP  RH WIND       PRES   REMARKS
FREDERICK*     CLEAR     39  36  87 CALM      30.13S
HAGERSTOWN APT PTCLDY    42  33  70 S3        30.08R
WESTMINSTER*   PTCLDY    37  37 100 CALM      30.08S

$$

MDZ501>502-201100-
WESTERN MARYLAND

CITY           SKY/WX    TMP DP  RH WIND       PRES   REMARKS
OAKLAND*       MOCLDY    36  36 100 SW6       30.04S
CUMBERLAND*    MOCLDY    36  36 100 CALM      30.12S

$$

VAZ025>031-201100-
SHENANDOAH VALLEY

CITY           SKY/WX    TMP DP  RH WIND       PRES   REMARKS
WINCHESTER*    MOCLDY    37  34  87 CALM      30.08S
FRONT ROYAL*   FAIR      36  36 100 S3        30.08S
LURAY*         FAIR      37  37 100 CALM      30.09S
NEW MARKET*    FAIR      33  33  98 CALM      30.08S
STAUNTON*      PTCLDY    33  31  93 CALM      30.10F
WAYNESBORO*    FAIR      33  32  96 CALM      30.08S

$$

WVZ021-048>050-054>055-201100-
EASTERN WEST VIRGINIA PANHANDLE

CITY           SKY/WX    TMP DP  RH WIND       PRES   REMARKS
MARTINSBURG    MOCLDY    35  31  85 CALM      30.09S
PETERSBURG*    MOCLDY   N/A N/A N/A CALM      30.09S

$$

VAZ036>039-050-201100-
CENTRAL FOOTHILLS

CITY           SKY/WX    TMP DP  RH WIND       PRES   REMARKS
CHARLOTTESVILL PTCLDY    37  34  89 CALM      30.10R
CULPEPER*      PTCLDY    36  36 100 CALM      30.12S FOG
ORANGE*        PTCLDY    36  36 100 CALM      30.12S
GORDONSVILLE*  FAIR      36  35  96 CALM      30.10S
WARRENTON*     FAIR      34  34 100 CALM      30.11R

$$

VAZ055>057-201100-
NORTH AND CENTRAL PIEDMONT

CITY           SKY/WX    TMP DP  RH WIND       PRES   REMARKS
FREDERICKSBRG* CLEAR     37  37 100 CALM      30.13R
STAFFORD*      CLEAR     32  32 100 CALM      30.17R

$$

NCZ024-NYZ072-PAZ021-071-VAZ022-071-201100-
OTHER REGIONAL OBSERVATIONS

CITY           SKY/WX    TMP DP  RH WIND       PRES   REMARKS
NEW YORK CITY  PTCLDY    42  29  59 CALM      30.12R
PHILADELPHIA   PTCLDY    42  32  67 S5        30.13R
PITTSBURGH     CLOUDY    43  36  76 S5        30.02F
ROANOKE        CLEAR     41  37  86 NE3       30.12R
RICHMOND       PTCLDY    41  36  82 CALM      30.13R
RALEIGH        PTCLDY    42  40  92 CALM      30.15R

$$

ANZ530>537-201100-
MARINE OBSERVATIONS

STATION/POSITION TIME  TEMP    WIND        PRES
                       AIR SEA DIR/SP/G
                 (UTC) (F)     (DEG/KT/KT) (MB)
THOMAS PT LIGHT  1000   53 63  250/  3/  3 1020.9R
BALT KEY BRIDGE  1000   48     230/  3/  4 1019.2S
COVE POINT       1000   53     240/  3/  4 1019.8S
LEWISETTA        1000   48 62  230/  3/  3 1019.5F
SOLOMONS ISLAND  1000      65                N/A
PINEY POINT      1000           CALM  /  1   N/A

$$




USA.gov is the U.S. government's official web portal to all federal, state and local government web resources and services.